Regional Weather Roundup
Issued by NWS

Home | Current Version | Previous Version | Graphics & Text | Print | Product List | Glossary Off
Versions: 1 2 3 4 5 6 7 8 9 10 11 12 13 14 15 16 17 18 19 20 21 22 23 24 25 26 27 28 29 30 31 32 33 34 35 36 37 38 39 40 41 42 43 44 45 46 47 48 49 50

000
ASUS43 KLOT 292108
RWRIL

ILLINOIS REGIONAL WEATHER ROUNDUP
NATIONAL WEATHER SERVICE CHICAGO/ROMEOVILLE IL
400 PM CDT SUN MAY 29 2016

NOTE: "FAIR" INDICATES FEW OR NO CLOUDS BELOW 12,000 FEET WITH NO
SIGNIFICANT WEATHER AND/OR OBSTRUCTIONS TO VISIBILITY.

* THESE STATIONS ARE NOT UNDER NWS QUALITY CONTROL. THEY ALSO MAY NOT
  REPORT WEATHER SUCH AS PRECIPITATION OR FOG.

ILZ001-002-007-009-015-016-024-292200-
NORTHWEST ILLINOIS

CITY           SKY/WX    TMP DP  RH WIND       PRES   REMARKS
MOLINE         MOSUNNY   81  56  42 W14       30.02F HX  81
STERLING*      MOSUNNY   80  59  48 W17       30.02S HX  81
SAVANNA*       PTSUNNY   79  57  46 W10G17    30.01S HX  80
$$

ILZ003-004-008-010-011-017-018-292200-
NORTH CENTRAL ILLINOIS

CITY           SKY/WX    TMP DP  RH WIND       PRES   REMARKS
ROCKFORD       PTSUNNY   80  58  46 W16G23    30.02S HX  80
FREEPORT*      PTSUNNY   78  58  51 W13G18    30.02S
ROCHELLE*      PTSUNNY   78  60  54 W15       30.02S
DE KALB*       PTSUNNY   78  61  56 W15G24    30.02S
$$

ILZ005-006-012>014-019>023-292200-
NORTHEAST ILLINOIS

CITY           SKY/WX    TMP DP  RH WIND       PRES   REMARKS
CHICAGO-OHARE  MOSUNNY   78  60  53 W17G23    29.99F
CHICAGO-MIDWAY MOSUNNY   80  58  46 W13       30.00S HX  80
AURORA         MOSUNNY   79  61  53 W13       30.01F HX  80
LANSING*       MOSUNNY   80  57  45 W10G22    30.01S HX  80
JOLIET*        MOSUNNY   82  58  44 W8G18     30.01F HX  82
WAUKEGAN       MOSUNNY   79  58  48 W8G21     29.97S HX  80
DUPAGE AIRPORT CLOUDY    77  59  53 SW15G21   30.00F
KANKAKEE*      MOSUNNY   81  55  41 NW9       30.02S HX  81
WHEELING       MOSUNNY   78  58  49 SW12G20   29.99F
MORRIS*        MOSUNNY   82  57  42 W16G25    30.00F HX  82
ROMEOVILLE*    MOSUNNY   81  54  39 W13       30.01F HX  80
NORTHERLY ISL    N/A     78  54  43 W12         N/A
NORTHERLY ISL    N/A     78  54  43 W12         N/A
$$

LMZ740>746-292200-
SOUTHERN LAKE MICHIGAN

STATION/POSITION SKY/WX   TEMP    WIND        PRES    VSBY  WAVE
                          AIR SEA DIR/SP/G                  HT/PER
                          (F)     (DEG/KT/KT) (MB)    (MI)  (FT/S)
SOUTHERN BUOY              58 51  180/ 10/ 12 1014.6F         1
WILMETTE HARBOR            67 54  280/  6/  8   N/A           1/ 2
HARRISON CRIB              76     240/ 12/ 13   N/A
BURNHAM HARBOR             78     250/ 12/ 18   N/A
CALUMET HARBOR             78     220/  8/ 13 1015.5F
BURNS HARBOR               67     290/ 11/ 13 1016.6S
MICHIGAN CITY              67     250/ 14/ 15   N/A
MICHIGAN CITY 6N           63 58  300/  8/  8   N/A           1/ 3
ST. JOSEPH                 62 61  290/  8/ 10   N/A           1/ 2
$$

ILZ025>027-034>036-040-047-049-050-058-095>099-292200-
WEST-CENTRAL ILLINOIS

CITY           SKY/WX    TMP DP  RH WIND       PRES   REMARKS
QUINCY         SUNNY     82  56  40 W10       30.07F HX  82
GALESBURG*     MOSUNNY   81  58  45 W8        30.05F HX  81
MACOMB*        MOSUNNY   82  55  38 W14       30.08S HX  81
JACKSONVILLE*  MOSUNNY   84  56  38 W14       30.07F HX  83
PITTSFIELD*    MOSUNNY   83  61  46 NW7       30.08F HX  83
$$

ILZ028>032-037-038-041>044-048-051>054-059>061-292200-
CENTRAL ILLINOIS

CITY           SKY/WX    TMP DP  RH WIND       PRES   REMARKS
PONTIAC        MOSUNNY   84  57  40 W10G21    30.03F HX  83
BLOOMINGTON    MOSUNNY   81  61  50 W12       30.07S HX  82
DECATUR        MOSUNNY   83  55  38 NW13G21   30.05F HX  82
PEORIA         SUNNY     83  55  38 W10       30.04F HX  82
LACON*         PTSUNNY   82  53  36 W9G18     30.02F HX  81
LINCOLN*       SUNNY     83  59  44 W9        30.05F HX  83
SPRINGFIELD    MOSUNNY   86  53  32 W12       30.06F HX  84
TAYLORVILLE    MOSUNNY   84  55  36 NW13G18   30.06F HX  83
$$

ILZ033-039-045-046-055>057-062-063-292200-
EAST-CENTRAL ILLINOIS

CITY           SKY/WX    TMP DP  RH WIND       PRES   REMARKS
CHAMPAIGN      MOSUNNY   85  53  33 W15G22    30.04F HX  83
RANTOUL*       SUNNY     84  58  40 W10G21    30.04F HX  83
MATTOON        MOSUNNY   83  56  39 W10       30.04F HX  82
PARIS*         MOSUNNY   84  60  43 W7        30.04F HX  84
$$

ILZ079-100>102-292200-
SOUTHWEST ILLINOIS

CITY           SKY/WX    TMP DP  RH WIND       PRES   REMARKS
ALTON          MOSUNNY   84  55  37 W9        30.07F HX  83
BELLEVILLE     MOSUNNY   84  57  39 W5        30.06F HX  83
CAHOKIA*       CLOUDY    86  55  34 NW7       30.07F HX  84
SPARTA*        MOSUNNY   83  60  45 NW6       30.09S HX  83
$$

ILZ064>066-069>071-074>076-080>082-084>086-088>090-092>094-292200-
SOUTH-CENTRAL ILLINOIS

CITY           SKY/WX    TMP DP  RH WIND       PRES   REMARKS
CARBONDALE     MOSUNNY   85  59  41 NW8       30.07F HX  84
CAIRO*         MOSUNNY   83  67  56 NW8       30.06F HX  86
EFFINGHAM*     MOSUNNY   84  62  46 W8        30.07F HX  85
MARION         PTSUNNY   84  63  48 NW8       30.07F HX  85
MT. VERNON     MOSUNNY   84  61  45 N6        30.07F HX  84
CENTRALIA*     MOSUNNY   84  63  49 W10       30.06F HX  85
SALEM*         MOSUNNY   84  59  42 NW6       30.07F HX  84
METROPOLIS*    SUNNY     86  69  56 W7        30.06F HX  91
$$

ILZ067-068-072-073-078-083-087-091-292200-
SOUTHEAST ILLINOIS

CITY           SKY/WX    TMP DP  RH WIND       PRES   REMARKS
LAWRENCEVILLE  MOSUNNY   87  63  44 W15       30.04F HX  88
FLORA*         MOSUNNY   86  61  42 NW12      30.06F HX  86
FAIRFIELD*     SUNNY     84  62  46 W6        30.05S HX  84
HARRISBURG*    MOSUNNY   85  66  53 NW9       30.06F HX  87
ROBINSON*      MOSUNNY   84  61  45 W12G17    30.05F HX  84
CARMI*         MOSUNNY   86  65  50 W10       30.04F HX  87
$$

ABBREVIATIONS USED IN REMARKS
   TC - TEMPERATURE IN CELSIUS
  WCI - WIND CHILL INDEX
   HX - HEAT INDEX
  VSB - VISIBILITY
$$




USA.gov is the U.S. government's official web portal to all federal, state and local government web resources and services.